When you browse on this site, cookies collect data to enhance your experience and personalize the content and advertising you see.
Visit our Privacy Policy to learn more. By continuing to use the site, you agree to this use of cookies and data.
  • In Österreich
  • Länderverzeichnis
  • Für 7 Tage
  • Wassertemperatur
  • Wetterkarte
  • News
  • Widgets
  • user-avatar
    Anmelden

    Stündliche Wetter Atotonilco el Grande

    Heute, 17 August, Samstag

    Zeit Temperatur Niederschläge Wind Luftdruck Luftfeuchtigkeit
    00:00 +13°C° 0 mm 0 m/S 593 mmHg 86%
    01:00 +14°C° 0 mm 1 m/S 593 mmHg 84%
    02:00 +14°C° 0 mm 1 m/S 592 mmHg 83%
    03:00 +14°C° 0 mm 1 m/S 592 mmHg 83%
    04:00 +13°C° 0 mm 1 m/S 592 mmHg 83%
    05:00 +13°C° 0 mm 1 m/S 592 mmHg 83%
    06:00 +15°C° 0 mm 0 m/S 593 mmHg 74%
    07:00 +17°C° 0 mm 0 m/S 595 mmHg 65%
    08:00 +20°C° 0 mm 0 m/S 596 mmHg 57%
    09:00 +23°C° 0 mm 1 m/S 596 mmHg 53%
    10:00 +25°C° 0 mm 1 m/S 597 mmHg 49%
    11:00 +26°C° 0 mm 2 m/S 597 mmHg 46%
    12:00 +26°C° 0.1 mm 3 m/S 596 mmHg 49%
    13:00 +26°C° 0.1 mm 4 m/S 595 mmHg 52%
    14:00 +26°C° 0.1 mm 4 m/S 595 mmHg 55%
    15:00 +23°C° 0.4 mm 4 m/S 594 mmHg 61%
    16:00 +22°C° 0.4 mm 4 m/S 594 mmHg 68%
    17:00 +21°C° 0.4 mm 3 m/S 593 mmHg 75%
    18:00 +19°C° 0.1 mm 2 m/S 593 mmHg 82%
    19:00 +18°C° 0.1 mm 2 m/S 593 mmHg 88%
    20:00 +16°C° 0.1 mm 1 m/S 593 mmHg 95%
    21:00 +16°C° 0 mm 1 m/S 593 mmHg 92%
    22:00 +15°C° 0 mm 1 m/S 593 mmHg 89%
    23:00 +15°C° 0 mm 1 m/S 593 mmHg 86%

    Morgen, 18 August, Sonntag

    Zeit Temperatur Niederschläge Wind Luftdruck Luftfeuchtigkeit
    00:00 +14°C° 0 mm 1 m/S 592 mmHg 83%
    01:00 +14°C° 0 mm 1 m/S 592 mmHg 81%
    02:00 +13°C° 0 mm 0 m/S 591 mmHg 78%
    03:00 +13°C° 0 mm 0 m/S 591 mmHg 79%
    04:00 +12°C° 0 mm 0 m/S 591 mmHg 80%
    05:00 +12°C° 0 mm 0 m/S 591 mmHg 80%
    06:00 +14°C° 0 mm 0 m/S 593 mmHg 73%
    07:00 +17°C° 0 mm 0 m/S 594 mmHg 66%
    08:00 +19°C° 0 mm 0 m/S 595 mmHg 59%
    09:00 +22°C° 0 mm 1 m/S 595 mmHg 54%
    10:00 +24°C° 0 mm 1 m/S 596 mmHg 48%
    11:00 +25°C° 0 mm 2 m/S 596 mmHg 43%
    12:00 +25°C° 0 mm 3 m/S 596 mmHg 46%
    13:00 +26°C° 0 mm 4 m/S 595 mmHg 49%
    14:00 +26°C° 0 mm 5 m/S 595 mmHg 52%
    15:00 +23°C° 0.1 mm 4 m/S 594 mmHg 60%
    16:00 +22°C° 0.1 mm 4 m/S 593 mmHg 68%
    17:00 +20°C° 0.1 mm 3 m/S 593 mmHg 76%
    18:00 +19°C° 0.1 mm 3 m/S 593 mmHg 82%
    19:00 +17°C° 0.1 mm 2 m/S 593 mmHg 89%
    20:00 +16°C° 0.1 mm 1 m/S 593 mmHg 95%
    21:00 +15°C° 0 mm 1 m/S 593 mmHg 95%
    22:00 +15°C° 0 mm 1 m/S 592 mmHg 95%
    23:00 +14°C° 0 mm 1 m/S 592 mmHg 95%

    übermorgen, 19 August, Montag

    Zeit Temperatur Niederschläge Wind Luftdruck Luftfeuchtigkeit
    00:00 +14°C° 0 mm 1 m/S 592 mmHg 94%
    01:00 +14°C° 0 mm 1 m/S 592 mmHg 94%
    02:00 +14°C° 0 mm 1 m/S 592 mmHg 94%
    03:00 +14°C° 0 mm 1 m/S 592 mmHg 94%
    04:00 +13°C° 0 mm 0 m/S 592 mmHg 94%
    05:00 +13°C° 0 mm 0 m/S 592 mmHg 94%
    06:00 +15°C° 0 mm 1 m/S 593 mmHg 88%
    07:00 +18°C° 0 mm 1 m/S 594 mmHg 82%
    08:00 +19°C° 0 mm 1 m/S 595 mmHg 76%
    09:00 +20°C° 0.1 mm 2 m/S 595 mmHg 71%
    10:00 +21°C° 0.1 mm 3 m/S 595 mmHg 66%
    11:00 +22°C° 0.1 mm 3 m/S 595 mmHg 61%
    12:00 +22°C° 0.4 mm 4 m/S 595 mmHg 64%
    13:00 +22°C° 0.4 mm 5 m/S 594 mmHg 66%
    14:00 +21°C° 0.4 mm 5 m/S 593 mmHg 69%
    15:00 +20°C° 0.1 mm 5 m/S 593 mmHg 73%
    16:00 +19°C° 0.1 mm 4 m/S 593 mmHg 76%
    17:00 +18°C° 0.1 mm 3 m/S 593 mmHg 80%
    18:00 +17°C° 0.1 mm 3 m/S 593 mmHg 85%
    19:00 +17°C° 0.1 mm 3 m/S 593 mmHg 90%
    20:00 +16°C° 0.1 mm 2 m/S 593 mmHg 95%
    21:00 +15°C° 0 mm 2 m/S 593 mmHg 95%
    22:00 +14°C° 0 mm 1 m/S 593 mmHg 94%
    23:00 +14°C° 0 mm 1 m/S 593 mmHg 94%

    20 August, Dienstag

    Zeit Temperatur Niederschläge Wind Luftdruck Luftfeuchtigkeit
    00:00 +13°C° 0 mm 1 m/S 592 mmHg 93%
    01:00 +12°C° 0 mm 1 m/S 592 mmHg 93%
    02:00 +11°C° 0 mm 1 m/S 591 mmHg 92%
    03:00 +10°C° 0 mm 0 m/S 591 mmHg 91%
    04:00 +10°C° 0 mm 0 m/S 591 mmHg 90%
    05:00 +9°C° 0 mm 0 m/S 592 mmHg 89%
    06:00 +13°C° 0 mm 1 m/S 593 mmHg 82%
    07:00 +15°C° 0 mm 1 m/S 594 mmHg 74%
    08:00 +18°C° 0 mm 1 m/S 595 mmHg 67%
    09:00 +19°C° 0 mm 2 m/S 595 mmHg 62%
    10:00 +20°C° 0 mm 3 m/S 596 mmHg 56%
    11:00 +22°C° 0 mm 4 m/S 596 mmHg 51%
    12:00 +22°C° 0 mm 5 m/S 596 mmHg 54%
    13:00 +22°C° 0 mm 5 m/S 595 mmHg 58%
    14:00 +22°C° 0 mm 6 m/S 595 mmHg 61%
    15:00 +20°C° 0.1 mm 5 m/S 594 mmHg 67%
    16:00 +19°C° 0.1 mm 5 m/S 594 mmHg 73%
    17:00 +17°C° 0.1 mm 4 m/S 594 mmHg 79%
    18:00 +17°C° 0.1 mm 3 m/S 594 mmHg 83%
    19:00 +16°C° 0.1 mm 2 m/S 594 mmHg 88%
    20:00 +15°C° 0.1 mm 2 m/S 594 mmHg 93%
    21:00 +15°C° 0 mm 2 m/S 594 mmHg 94%
    22:00 +14°C° 0 mm 1 m/S 594 mmHg 94%
    23:00 +14°C° 0 mm 1 m/S 594 mmHg 95%

    21 August, Mittwoch

    Zeit Temperatur Niederschläge Wind Luftdruck Luftfeuchtigkeit
    00:00 +14°C° 0 mm 1 m/S 594 mmHg 95%
    01:00 +13°C° 0 mm 1 m/S 593 mmHg 94%
    02:00 +13°C° 0 mm 1 m/S 593 mmHg 93%
    03:00 +13°C° 0 mm 1 m/S 593 mmHg 94%
    04:00 +11°C° 0 mm 0 m/S 593 mmHg 94%
    05:00 +11°C° 0 mm 0 m/S 593 mmHg 95%
    06:00 +13°C° 0 mm 0 m/S 594 mmHg 88%
    07:00 +15°C° 0 mm 1 m/S 595 mmHg 80%
    08:00 +18°C° 0 mm 1 m/S 595 mmHg 73%
    09:00 +19°C° 0 mm 1 m/S 595 mmHg 70%
    10:00 +19°C° 0 mm 2 m/S 596 mmHg 66%
    11:00 +20°C° 0 mm 2 m/S 596 mmHg 63%
    12:00 +20°C° 0.6 mm 3 m/S 595 mmHg 67%
    13:00 +20°C° 0.6 mm 3 m/S 594 mmHg 72%
    14:00 +19°C° 0.6 mm 3 m/S 594 mmHg 76%
    15:00 +19°C° 0.4 mm 3 m/S 594 mmHg 79%
    16:00 +18°C° 0.4 mm 3 m/S 593 mmHg 83%
    17:00 +17°C° 0.4 mm 3 m/S 593 mmHg 86%
    18:00 +16°C° 0.2 mm 2 m/S 593 mmHg 90%
    19:00 +15°C° 0.2 mm 2 m/S 594 mmHg 93%
    20:00 +15°C° 0.2 mm 1 m/S 594 mmHg 96%
    21:00 +15°C° 1.5 mm 1 m/S 594 mmHg 96%
    22:00 +15°C° 1.5 mm 1 m/S 594 mmHg 96%
    23:00 +15°C° 1.5 mm 1 m/S 594 mmHg 95%

    22 August, Donnerstag

    Zeit Temperatur Niederschläge Wind Luftdruck Luftfeuchtigkeit
    00:00 +15°C° 0.1 mm 1 m/S 594 mmHg 95%
    01:00 +13°C° 0.1 mm 0 m/S 593 mmHg 95%
    02:00 +13°C° 0.1 mm 0 m/S 593 mmHg 95%
    03:00 +13°C° 0 mm 0 m/S 593 mmHg 95%
    04:00 +13°C° 0 mm 0 m/S 593 mmHg 95%
    05:00 +12°C° 0 mm 0 m/S 593 mmHg 95%
    06:00 +14°C° 0 mm 0 m/S 594 mmHg 89%
    07:00 +16°C° 0 mm 0 m/S 595 mmHg 82%
    08:00 +17°C° 0 mm 0 m/S 596 mmHg 75%
    09:00 +20°C° 0.5 mm 1 m/S 596 mmHg 72%
    10:00 +21°C° 0.5 mm 1 m/S 596 mmHg 70%
    11:00 +21°C° 0.5 mm 2 m/S 596 mmHg 67%
    12:00 +21°C° 1.6 mm 2 m/S 595 mmHg 69%
    13:00 +21°C° 1.6 mm 3 m/S 595 mmHg 72%
    14:00 +21°C° 1.6 mm 3 m/S 594 mmHg 74%
    15:00 +20°C° 0.9 mm 3 m/S 594 mmHg 77%
    16:00 +19°C° 0.9 mm 3 m/S 594 mmHg 80%
    17:00 +18°C° 0.9 mm 3 m/S 593 mmHg 83%
    18:00 +17°C° 0.2 mm 2 m/S 593 mmHg 87%
    19:00 +16°C° 0.2 mm 2 m/S 594 mmHg 91%
    20:00 +15°C° 0.2 mm 1 m/S 594 mmHg 95%
    21:00 +15°C° 0.3 mm 1 m/S 594 mmHg 93%
    22:00 +16°C° 0.3 mm 1 m/S 594 mmHg 92%
    23:00 +16°C° 0.3 mm 1 m/S 594 mmHg 90%
    Mehr zeigen